Regional Weather Roundup
Issued by NWS

Home | Current Version | Previous Version | Graphics & Text | Print | Product List | Glossary On
Versions: 1 2 3 4 5 6 7 8 9 10 11 12 13 14 15 16 17 18 19 20 21 22 23 24 25 26 27 28 29 30 31 32 33 34 35 36 37 38 39 40 41 42 43 44 45 46 47 48 49 50
000
ASUS43 KOAX 062210
RWRNE

WEATHER ROUNDUP FOR NEBRASKA
NATIONAL WEATHER SERVICE OMAHA NE
500 PM CDT MON JUL 06 2015

NOTES: SATELLITE DATA IS BEING USED TO AUGMENT CLOUD COVER ABOVE
       12000 FEET.
       "FAIR" INDICATES FEW OR NO CLOUDS BELOW 12,000 FEET WITH NO
       SIGNIFICANT WEATHER AND/OR OBSTRUCTIONS TO VISIBILITY.

  * THESE STATIONS DO NOT REPORT WEATHER SUCH AS RAIN...SNOW OR FOG.

NEZ001>004-019>022-054>056-062300-
NEBRASKA PANHANDLE

CITY           SKY/WX    TMP DP  RH WIND       PRES   REMARKS
SCOTTSBLUFF    PTSUNNY   70  52  52 CALM      30.24F HAZE
ALLIANCE       CLOUDY    69  55  60 N10       30.22F HAZE
CHADRON        MOSUNNY   72  51  47 VRB5      30.22F
KIMBALL          N/A    N/A N/A N/A MISG        N/A
SIDNEY         CLOUDY    69  52  54 NE14      30.24S HAZE
$$

NEZ057>060-069>072-079>082-062300-
SOUTHWEST NEBRASKA

CITY           SKY/WX    TMP DP  RH WIND       PRES   REMARKS
NORTH PLATTE   PTSUNNY   74  53  48 N17G24    30.13S
IMPERIAL       CLOUDY    74  51  44 N13       30.15F
LEXINGTON      PTSUNNY   77  54  44 N17G25    30.07F HAZE
MCCOOK         MOSUNNY   79  55  43 N17G25    30.08F HAZE
OGALLALA       CLOUDY    74  53  48 N17       30.17F HAZE
$$

NEZ005>010-023>029-035>040-094-062300-
NORTH CENTRAL NEBRASKA

CITY           SKY/WX    TMP DP  RH WIND       PRES   REMARKS
VALENTINE      CLOUDY    72  52  49 N15       30.16S
AINSWORTH      MOSUNNY   74  55  50 N16       30.15S
BROKEN BOW     MOSUNNY   76  56  49 N17G30    30.08F HAZE
O`NEILL        MOSUNNY   75  57  52 N20G25    30.09S HAZE
ORD            MOSUNNY   76  56  49 N16G26    30.04F HAZE
THEDFORD       PTSUNNY   72  53  50 N12G21    30.16F
$$

NEZ041-046>049-061>064-073>077-083>087-062300-
SOUTH CENTRAL NEBRASKA

CITY           SKY/WX    TMP DP  RH WIND       PRES   REMARKS
GRAND ISLAND   MOSUNNY   76  58  53 N23G33    30.00F HAZE
AURORA         MOSUNNY   75  60  58 N24G31    29.99S HAZE
HASTINGS       MOSUNNY   76  59  55 N22G31    30.00F HAZE
HEBRON         CLOUDY    73  64  72 N14G26    29.96R
HOLDREGE       PTSUNNY   75  56  50 N21       30.03F HAZE
KEARNEY *      PTSUNNY   77  55  47 N22       30.02F
YORK           CLOUDY    73  64  73 N18G30    29.98R
$$

NEZ011>018-030>034-042>045-062300-
NORTHEAST NEBRASKA

CITY           SKY/WX    TMP DP  RH WIND       PRES   REMARKS
NORFOLK        PTSUNNY   77  62  59 N17G24    29.99F HAZE
ALBION           N/A     76  55  49 N14G24    30.01F HAZE
BLAIR          CLOUDY    73  64  73 N18G26    29.93S
FREMONT        CLOUDY    75  65  70 N10G23    29.96R
TEKAMAH        CLOUDY    76  66  71 N17       29.94S
WAYNE          CLOUDY    73  64  72 N12G18    30.00F HAZE
$$

NEZ050>053-065>068-078-088>093-062300-
SOUTHEAST NEBRASKA

CITY           SKY/WX    TMP DP  RH WIND       PRES   REMARKS
LINCOLN        CLOUDY    72  68  87 N16       29.94R
OMAHA EPPLEY   PTSUNNY   76  67  73 N23G33    29.91R
BEATRICE       CLOUDY    72  69  89 N21       29.93R
FALLS CITY     CLOUDY    74  71  91 N7        29.88R
NEBRASKA CITY  CLOUDY    74  70  89 N9        29.89R
PLATTSMOUTH    CLOUDY    73  69  88 N16       29.90R
$$

NEZ044-045-051>053-067-062300-
OMAHA AREA

CITY           SKY/WX    TMP DP  RH WIND       PRES   REMARKS
OMAHA EPPLEY   PTSUNNY   76  67  73 N23G33    29.91R
BLAIR          CLOUDY    73  64  73 N18G26    29.93S
FREMONT        CLOUDY    75  65  70 N10G23    29.96R
MILLARD        CLOUDY    75  67  75 N13G22    29.92R
OFFUTT AFB     PTSUNNY   74  69  86 N14G25    29.90R
PLATTSMOUTH    CLOUDY    73  69  88 N16       29.90R
WAHOO          CLOUDY    74  66  76 N15G26    29.94S
$$



USA.gov is the U.S. government's official web portal to all federal, state and local government web resources and services.